Fort Wayne, IN

8:37 PM EDT on September 20, 2019 (GMT -0400)
Fort Wayne International

Weather History for KFWA - May, 2019

Change the Weather History Date:

Saturday, May 25, 2019

  Actual Average Record
Temperature  
Mean Temperature 74 °F 63 °F  
Max Temperature 84 °F 74 °F 93 °F (2012)
Min Temperature 64 °F 52 °F 33 °F (1925)
Degree Days  
Heating Degree Days 0 4  
Month to date heating degree days 165 171  
Since 1 July heating degree days 5847 6053  
Cooling Degree Days 9 2  
Month to date cooling degree days 31 31  
Year to date cooling degree days 31 39  
Growing Degree Days 24 (Base 50)    
Moisture  
Dew Point 65 °F    
Average Humidity 72    
Maximum Humidity 93    
Minimum Humidity 51    
Precipitation  
Precipitation 0.02 in 0.16 in 3.46 in (2011)
Month to date precipitation 2.79 3.28  
Year to date precipitation 16.84 13.81  
Snow  
Snow 0.00 in 0.00 in 0.00 in (2002)
Month to date snowfall 0.0 0.0  
Since 1 July snowfall 24.7 33.5  
Snow Depth 0.00 in    
Sea Level Pressure  
Sea Level Pressure 29.97 in    
Wind  
Wind Speed 12 mph (SW)    
Max Wind Speed 25 mph    
Max Gust Speed 33 mph    
Visibility 10 miles    
Events Rain , Thunderstorm    
T = Trace of Precipitation, MM = Missing Value Source: NWS Daily Summary

Daily Weather History Graph

Daily Weather History Graph

Search for Another Location

Airport or City:

Astronomy

May. 25, 2019 Rise Set
Actual Time 6:15 AM EDT 9:00 PM EDT
Civil Twilight 5:42 AM EDT 9:33 PM EDT
Nautical Twilight 5:02 AM EDT 10:13 PM EDT
Astronomical Twilight 4:16 AM EDT 11:00 PM EDT
Moon 2:00 AM EDT (5/25) 12:14 PM EDT (5/25)
Length of Visible Light 15h 50m
Length of Day
14h 45m
Waning Gibbous, 60% of the Moon is Illuminated
May 25
Waning Gibbous
May 26
Last Quarter
Jun 3
New
Jun 10
First Quarter
Jun 17
Full

Hourly Weather History & Observations

Time (EDT) Temp. Heat Index Dew Point Humidity Pressure Visibility Wind Dir Wind Speed Gust Speed Precip Events Conditions
12:54 AM 66.0 °F - 63.0 °F 90% 30.00 in 10.0 mi ESE 3.5 mph - N/A   Partly Cloudy
1:54 AM 64.9 °F - 62.1 °F 90% 29.99 in 10.0 mi SSE 3.5 mph - N/A   Partly Cloudy
2:54 AM 66.0 °F - 63.0 °F 90% 29.97 in 10.0 mi SSW 8.1 mph - N/A   Partly Cloudy
3:54 AM 69.1 °F - 63.0 °F 81% 29.96 in 10.0 mi SSW 8.1 mph - N/A   Partly Cloudy
4:54 AM 69.1 °F - 63.0 °F 81% 29.94 in 10.0 mi SSW 10.4 mph - N/A   Scattered Clouds
5:54 AM 69.1 °F - 63.0 °F 81% 29.94 in 10.0 mi SSW 9.2 mph - N/A   Mostly Cloudy
6:54 AM 70.0 °F - 64.0 °F 81% 29.96 in 10.0 mi SW 9.2 mph - N/A   Mostly Cloudy
7:54 AM 73.0 °F - 64.9 °F 76% 29.96 in 10.0 mi SW 12.7 mph - N/A   Mostly Cloudy
8:54 AM 75.9 °F - 66.0 °F 71% 29.96 in 10.0 mi SW 18.4 mph 25.3 mph N/A   Mostly Cloudy
9:54 AM 79.0 °F - 66.9 °F 66% 29.96 in 10.0 mi SW 18.4 mph 29.9 mph N/A   Mostly Cloudy
10:54 AM 80.1 °F 82.3 °F 66.9 °F 64% 29.95 in 10.0 mi WSW 17.3 mph 31.1 mph N/A   Mostly Cloudy
11:54 AM 82.0 °F 84.9 °F 68.0 °F 62% 29.96 in 10.0 mi WSW 19.6 mph 25.3 mph N/A   Mostly Cloudy
12:54 PM 84.0 °F 86.5 °F 66.9 °F 56% 29.95 in 10.0 mi WSW 21.9 mph 29.9 mph N/A   Mostly Cloudy
1:54 PM 81.0 °F 82.5 °F 64.0 °F 56% 29.94 in 10.0 mi West 17.3 mph - N/A   Mostly Cloudy
2:11 PM 79.0 °F - 64.0 °F 60% 29.95 in 10.0 mi West 17.3 mph 24.2 mph 0.00 in Rain , Thunderstorm Light Rain
2:44 PM 75.9 °F - 66.0 °F 71% 29.99 in 10.0 mi West 15.0 mph - 0.02 in   Mostly Cloudy
2:54 PM 75.9 °F - 66.0 °F 71% 29.98 in 10.0 mi WSW 15.0 mph - 0.02 in   Mostly Cloudy
3:54 PM 80.1 °F 81.9 °F 64.9 °F 60% 29.97 in 10.0 mi West 15.0 mph 21.9 mph N/A   Mostly Cloudy
4:54 PM 82.0 °F 83.1 °F 63.0 °F 52% 29.96 in 10.0 mi West 15.0 mph 23.0 mph N/A   Mostly Cloudy
5:54 PM 81.0 °F 82.2 °F 63.0 °F 54% 29.97 in 10.0 mi West 13.8 mph - N/A   Mostly Cloudy
6:54 PM 81.0 °F 82.5 °F 64.0 °F 56% 29.98 in 10.0 mi WSW 13.8 mph - N/A   Mostly Cloudy
7:54 PM 79.0 °F - 66.0 °F 64% 29.98 in 10.0 mi SW 10.4 mph - N/A   Mostly Cloudy
8:54 PM 75.0 °F - 66.9 °F 76% 29.97 in 10.0 mi SSW 8.1 mph - N/A   Scattered Clouds
9:54 PM 73.0 °F - 68.0 °F 84% 29.97 in 10.0 mi South 6.9 mph - N/A   Partly Cloudy
10:54 PM 71.1 °F - 68.0 °F 90% 29.98 in 10.0 mi SSW 5.8 mph - N/A   Partly Cloudy
11:54 PM 70.0 °F - 66.9 °F 90% 29.98 in 10.0 mi SW 6.9 mph - N/A   Partly Cloudy